EDT,Max TemperatureF,Mean TemperatureF,Min TemperatureF,Max Dew PointF,MeanDew PointF,Min DewpointF,Max Humidity, Mean Humidity, Min Humidity, Max Sea Level PressureIn, Mean Sea Level PressureIn, Min Sea Level PressureIn, Max VisibilityMiles, Mean VisibilityMiles, Min VisibilityMiles, Max Wind SpeedMPH, Mean Wind SpeedMPH, Max Gust SpeedMPH,PrecipitationIn, CloudCover, Events, WindDirDegrees
2012-9-1,95,83,71,77,72,68,100,77,44,30.21,30.15,30.08,10,9,4,12,4,17,0.00,0,,251
2012-9-2,91,81,71,77,72,68,100,79,46,30.11,30.06,29.99,10,10,7,14,2,23,0.00,1,Thunderstorm,231
2012-9-3,91,82,73,77,73,72,100,85,52,30.06,30.02,29.96,10,10,10,13,5,22,0.00,2,Rain-Thunderstorm,191
2012-9-4,86,78,71,77,74,72,100,90,62,30.03,30.00,29.94,10,9,5,12,4,18,0.09,5,Rain-Thunderstorm,170
2012-9-5,87,79,71,75,72,68,100,84,52,30.02,29.97,29.93,10,9,4,12,4,18,0.01,5,,216
2012-9-6,87,79,71,75,73,70,100,84,58,30.03,29.97,29.93,10,10,2,16,5,13,0.40,5,Rain-Thunderstorm,227
2012-9-7,87,78,69,77,73,70,100,87,58,30.03,29.96,29.90,10,8,1,10,2,,0.01,3,,29
2012-9-8,87,79,71,79,73,70,100,94,58,29.91,29.85,29.78,10,8,1,12,4,33,0.54,3,Rain-Thunderstorm,210
2012-9-9,80,71,62,72,62,54,100,77,42,30.06,29.95,29.86,10,10,7,16,7,21,0.01,4,Rain,17
2012-9-10,80,68,57,63,58,52,100,73,37,30.18,30.12,30.05,10,10,10,8,4,,0.00,1,,27
2012-9-11,78,68,59,64,61,57,100,83,47,30.33,30.27,30.19,10,10,7,6,1,,0.00,4,,70
2012-9-12,80,70,59,64,59,54,100,75,39,30.39,30.33,30.29,10,10,7,10,3,,0.00,2,,64
2012-9-13,80,68,57,64,61,57,100,80,51,30.37,30.32,30.27,10,10,10,10,4,,0.00,4,,41
2012-9-14,82,72,62,66,63,57,100,79,42,30.29,30.24,30.19,10,10,10,7,3,,0.00,4,,16
2012-9-15,86,73,60,68,63,59,100,76,40,30.24,30.18,30.13,10,10,10,7,1,,0.00,2,,27
2012-9-16,82,73,64,72,67,63,100,80,51,30.18,30.13,30.07,10,10,10,8,3,,0.00,2,Rain,203
2012-9-17,84,76,68,73,69,64,100,85,58,30.13,30.03,29.92,10,8,0,12,4,21,0.10,6,Fog-Rain,143
2012-9-18,78,74,71,77,73,72,100,95,78,29.92,29.82,29.77,10,9,2,12,8,25,0.20,6,Rain-Thunderstorm,201
2012-9-19,77,68,60,64,61,59,100,76,54,30.15,30.04,29.89,10,10,4,15,5,22,0.04,3,,41
2012-9-20,78,66,55,64,59,55,100,78,44,30.20,30.14,30.09,10,10,10,10,3,,0.00,1,,70
2012-9-21,82,70,59,70,63,59,100,82,48,30.14,30.09,30.02,10,9,5,9,2,,0.00,2,,205
2012-9-22,86,75,64,70,64,59,100,76,40,30.08,30.03,29.97,10,9,4,16,6,24,0.00,0,,219
2012-9-23,80,70,57,64,52,45,94,60,28,30.17,30.11,30.04,10,10,10,9,4,16,0.00,1,,353
2012-9-24,75,63,51,55,47,41,94,60,34,30.26,30.20,30.14,10,10,10,14,8,21,0.00,0,,52
2012-9-25,78,64,50,59,55,50,100,73,42,30.28,30.23,30.21,10,10,10,6,2,,0.00,1,,118
2012-9-26,82,68,53,63,58,54,100,76,39,30.28,30.22,30.18,10,10,10,8,1,,0.00,0,,216
2012-9-27,86,73,60,72,64,59,100,82,40,30.26,30.19,30.13,10,8,0,9,2,,0.00,3,Fog,255
2012-9-28,86,73,60,68,63,61,100,78,43,30.16,30.10,30.02,10,10,7,8,2,,0.00,0,,219
2012-9-29,77,70,64,70,68,64,100,93,69,30.05,29.98,29.90,10,10,7,8,3,,0.00,3,Rain,232
2012-9-30,73,68,62,68,64,59,100,89,61,29.96,29.92,29.88,10,8,2,12,5,,0.12,6,Rain,57